Regional Weather Roundup
Issued by NWS Raleigh/Durham, NC

Home | Current Version | Previous Version | Text Only | Print | Product List | Glossary On
Versions: 1 2 3 4 5 6 7 8 9 10 11 12 13 14 15 16 17 18 19 20 21 22 23 24 25 26 27
000
ASUS42 KRAH 170910
RWRRAH
NORTH CAROLINA WEATHER ROUNDUP
NATIONAL WEATHER SERVICE RALEIGH NC
400 AM EST WED JAN 17 2018

NOTE: "FAIR" INDICATES FEW OR NO CLOUDS BELOW 12,000 FEET WITH NO
SIGNIFICANT WEATHER AND/OR OBSTRUCTIONS TO VISIBILITY.

NCZ001-053-055-056-065-067-171000-
WESTERN NORTH CAROLINA

CITY           SKY/WX    TMP DP  RH WIND       PRES   REMARKS
ASHEVILLE      LGT SNOW  19  15  84 N15G23    30.23S FOG     WCI   5
JEFFERSON      LGT SNOW  21  18  89 CALM      30.16S
MORGANTON      LGT SNOW  32  30  92 N6        30.27R WCI  26
HICKORY        LGT SNOW  32  31  96 NW5       30.23S FOG     WCI  27
RUTHERFORDTON  LGT SNOW  31  31  99 N6        30.25R WCI  25
MOUNT AIRY     LGT SNOW  30  26  83 N6        30.28S WCI  24
BOONE          LGT SNOW  19  15  83 W12G17    30.18S WCI   7
$$

NCZ021-022-025-041-071-084-088-171000-
CENTRAL NORTH CAROLINA

CITY           SKY/WX    TMP DP  RH WIND       PRES   REMARKS
CHARLOTTE      LGT RAIN  40  31  70 CALM      30.23F
GREENSBORO     CLOUDY    36  23  59 NE6       30.24R WCI  31
WINSTON-SALEM  CLOUDY    35  22  58 N6        30.26R WCI  30
RALEIGH-DURHAM CLOUDY    35  26  69 CALM      30.27S
FORT BRAGG     MOCLDY    33  28  84 CALM      30.25F
FAYETTEVILLE   MOCLDY    33  29  85 CALM      30.26F
BURLINGTON     CLOUDY    37  30  75 N3        30.26R
LAURINBURG     CLOUDY    35  30  82 CALM      30.27S
$$

NCZ011-015-027-028-043-044-047-080-103-171000-
NORTHEASTERN NORTH CAROLINA

CITY           SKY/WX    TMP DP  RH WIND       PRES   REMARKS
ROCKY MT-WILSO FAIR      30  28  92 CALM      30.28S
GREENVILLE     FAIR      30  28  93 CALM      30.28F
WASHINGTON     FAIR      30  29  95 CALM      30.28F
ELIZABETH CITY FAIR      31  31 100 SE5       30.29F WCI  26
MANTEO         FAIR      33  33  99 N3        30.29S
CAPE HATTERAS  FAIR      37  37 100 VRB5      30.27S WCI  33
$$

NCZ078-087-090-091-093-098-101-171000-
SOUTHEASTERN NORTH CAROLINA

CITY           SKY/WX    TMP DP  RH WIND       PRES   REMARKS
LUMBERTON      FAIR      30  29  96 CALM      30.26F
GOLDSBORO      FAIR      30  26  84 CALM      30.25F
KINSTON        FAIR      30  28  94 CALM      30.28F
KENANSVILLE    FAIR      28  27  93 CALM      30.27F
NEW BERN       FAIR      28  27  96 CALM      30.28F
CHERRY POINT   NOT AVBL
BEAUFORT       FAIR      32  31  96 CALM      30.28S
JACKSONVILLE   FAIR      29  28  96 CALM      30.27F
WILMINGTON     FAIR      30  29  96 CALM      30.26F
$$





USA.gov is the U.S. government's official web portal to all federal, state and local government web resources and services.